2022-090B (53347 NORAD) Tracking and Keplerian Element Data

This shows tracking and keplerian element data for the satellite.

Feedback or suggestion? Click here.




ElementValue
Catalog53347
Name2022-090B
Epoch Orbit1662
Epoch Day325.27360044
Epoch Year2022
RAAN37.7136
Inclination97.4607
Eccentricity0.0010973
Argument of Perigee251.8299
Mean Anonmoly195.1019
Mean Motion15.26214047
Decay Rate0.00011772
L11 53347U 22090B 22325.27360044 .00011772 00000+0 45670-3 0 9997
L22 53347 97.4607 37.7136 0010973 251.8299 195.1019 15.26214047 16623



Live tracking and technical data element details for 2022-090B (NORAD 53347). 2022-090B can be tracked NOW for your location showing map with azimuth and elevation plus other details from your city location.







IsCatalogInMostPopularTable: catalog: 53347, numindb: 5
Update: records affected: 1



GetName: 53347 2022-090B

Hit Count: updated at: Thu, 08 Dec 2022 20:28:55 GMT